This demonstration page uses our WeatherBlox Daily Observations layout. Learn more.

Left ArrowRight Arrow

Hourly Observations for September 8, 2022

Temp ( °F °C ) Dew Point ( °F °C ) Humidity (%) Winds ( mph kmh ) Pressure ( in mb ) Visibility ( mi km ) Precip ( " mm )
3:53 am 03:53 Clear 66 18.9 60 15.6 81 81 undefined N/A 29.98 1015 10 16 0.00 0.00
4:53 am 04:53 Clear 66 18.9 60 15.6 81 81 undefined N/A 29.97 1015 10 16 0.00 0.00
5:53 am 05:53 Clear 65 18.3 60 15.6 84 84 undefined N/A 29.96 1015 10 16 0.00 0.00
6:53 am 06:53 Clear 64 17.8 59 15 84 84 S 10 17 29.94 1014 10 16 0.00 0.00
7:53 am 07:53 Sunny 64 17.8 59 15 84 84 S 9 15 29.93 1014 10 16 0.00 0.00
8:53 am 08:53 Sunny 68 20 59 15 73 73 S 7 11 29.91 1013 10 16 0.00 0.00
9:53 am 09:53 Sunny 73 22.8 60 15.6 64 64 SSW 13 20 29.89 1012 10 16 0.00 0.00
10:53 am 10:53 Sunny 78 25.6 60 15.6 54 54 SSW 17 28 29.87 1012 10 16 0.00 0.00
11:53 am 11:53 Sunny 84 28.9 61 16.1 46 46 S 14 22 29.85 1011 10 16 0.00 0.00
12:53 pm 12:53 Sunny 87 30.6 61 16.1 42 42 S 17 28 29.82 1010 10 16 0.00 0.00
2:53 pm 14:53 Sunny 92 33.3 61 16.1 36 36 S 15 24 29.76 1008 10 16 0.00 0.00
3:53 pm 15:53 Sunny 94 34.4 61 16.1 34 34 S 15 24 29.73 1007 10 16 0.00 0.00
4:53 pm 16:53 Sunny 93 33.9 58 14.4 31 31 S 15 24 29.70 1006 10 16 0.00 0.00
5:53 pm 17:53 Sunny 91 32.8 57 13.9 32 32 S 13 20 29.69 1006 10 16 0.00 0.00
6:53 pm 18:53 Sunny 88 31.1 58 14.4 36 36 S 13 20 29.69 1005 10 16 0.00 0.00
7:53 pm 19:53 Sunny 84 28.9 57 13.9 40 40 S 12 19 29.69 1005 10 16 0.00 0.00
8:53 pm 20:53 Clear 80 26.7 57 13.9 45 45 S 13 20 29.69 1005 10 16 0.00 0.00
9:53 pm 21:53 Clear 78 25.6 54 12.2 43 43 S 10 17 29.69 1006 10 16 0.00 0.00
10:53 pm 22:53 Clear 76 24.4 52 11.1 43 43 S 9 15 29.70 1006 10 16 0.00 0.00
11:53 pm 23:53 Clear 74 23.3 50 10 43 43 S 7 11 29.69 1006 10 16 0.00 0.00

Powered by AerisWeather